Theta_e
343 344 344 344 340 339 341 339 337 336 337 339 337 336 335 334 335 334 333 333 334 334 333 333 333 335 335 336 336 334 335 334 333 333 334 334 333 333 334 334 333 335 337 336 335 336 336 336 336 336 337 337 337 336 336 336 336 335 335 332 329 328 324 322 325 327 327 327 325 317 315 323 329 330 328 328 328 326 324 323 322 324 326 327 325
343 344 343 344 342 340 340 339 336 335 336 338 338 336 335 333 334 333 333 333 334 335 334 334 334 335 335 336 335 334 335 335 335 333 333 333 333 333 334 334 335 336 336 336 335 335 336 336 337 337 337 336 336 336 336 335 335 334 333 330 328 327 324 324 326 328 328 328 327 323 316 314 320 327 328 328 327 325 325 324 322 321 325 326 323
342 344 344 344 343 341 339 337 335 336 334 337 338 336 334 333 333 333 333 334 334 334 334 334 334 335 336 336 335 335 335 336 336 335 334 333 334 334 335 335 335 335 336 335 334 334 333 334 335 335 336 335 335 335 335 334 334 333 331 329 328 327 324 324 327 328 329 327 326 326 323 316 312 318 325 326 326 324 319 319 319 317 320 323 323
342 344 343 344 343 341 338 335 335 335 334 336 337 336 334 333 333 333 334 334 335 334 334 335 335 336 336 335 336 336 337 337 337 336 335 334 335 335 335 335 335 335 335 334 333 333 331 330 331 332 334 333 334 334 333 333 333 332 330 330 328 327 325 324 325 327 328 328 326 326 325 322 316 313 316 319 323 322 314 315 319 317 320 321 322
342 343 343 343 343 340 336 336 336 334 334 334 335 335 335 333 333 334 333 333 335 334 334 336 336 336 335 335 336 336 337 337 336 336 336 335 336 335 335 335 335 335 334 333 333 332 330 327 326 326 328 329 331 331 331 330 331 331 330 330 329 327 325 325 324 325 326 327 328 329 327 325 323 320 318 315 318 320 316 318 321 320 322 322 323
343 343 343 343 343 340 335 336 335 333 334 332 333 335 334 333 333 333 332 331 332 331 332 335 335 335 335 336 336 336 336 336 337 337 336 336 335 335 335 334 334 334 333 332 331 332 331 328 326 325 324 324 325 326 328 328 328 329 329 329 329 327 325 325 325 325 325 326 327 329 328 328 326 325 326 323 320 319 317 317 321 322 321 323 323
342 343 343 343 342 340 335 335 333 333 333 329 330 335 334 333 333 333 333 333 331 330 331 334 334 335 335 336 336 336 336 336 337 337 335 334 334 334 334 333 333 332 332 331 330 330 331 331 330 328 327 326 324 322 324 327 327 327 328 328 329 327 325 325 325 325 324 324 325 326 326 328 328 326 328 328 325 324 320 318 323 326 325 325 325
342 343 343 342 342 339 334 333 331 330 328 324 330 335 333 333 334 334 335 335 332 331 331 333 334 334 334 335 336 336 335 336 337 337 335 333 333 333 333 332 331 330 329 329 328 328 328 329 330 330 329 328 326 323 322 325 327 327 326 327 328 328 326 324 324 324 324 324 324 325 326 328 328 327 329 329 327 327 325 323 327 329 328 328 327
342 343 342 342 342 337 332 333 330 327 323 324 331 332 332 333 334 333 334 334 334 333 332 333 334 334 334 335 335 335 335 335 337 337 335 333 333 333 332 331 330 329 328 328 328 327 326 326 327 328 328 328 327 326 324 323 325 327 326 326 326 327 327 325 323 324 324 324 324 325 327 328 328 327 329 330 329 329 329 329 329 329 329 329 328
343 343 343 342 342 337 332 334 331 326 324 327 331 330 332 334 333 333 333 334 334 334 333 333 333 333 334 334 334 335 335 335 335 335 334 333 333 333 332 331 330 329 329 328 328 327 326 324 324 327 328 327 327 326 326 324 324 324 324 325 325 325 326 325 323 324 324 324 324 325 326 327 327 327 329 330 330 331 330 329 329 328 328 328 328
342 342 343 341 341 338 334 336 332 326 327 330 332 333 333 333 333 333 333 334 334 333 332 332 333 334 333 333 334 334 334 334 334 334 334 333 333 332 330 329 328 328 328 327 327 327 326 325 324 326 327 327 327 325 325 325 324 323 323 323 323 323 323 324 323 323 324 323 324 325 325 324 325 325 327 328 329 331 330 328 327 327 328 327 327
342 342 342 341 340 340 337 337 332 327 330 331 334 335 332 331 331 331 332 332 330 328 328 328 331 332 333 332 332 333 333 333 334 335 334 333 333 332 330 329 328 328 327 326 326 327 326 325 325 325 325 326 326 325 325 325 324 323 324 323 323 322 321 322 322 322 323 322 323 324 324 324 323 324 326 328 328 330 330 328 326 326 326 326 327
342 342 341 341 340 340 339 337 333 329 332 332 333 334 329 327 330 331 331 329 326 326 326 326 326 327 330 330 329 330 331 331 332 334 335 334 333 332 331 330 329 328 328 326 325 326 326 325 324 324 325 326 325 325 324 324 324 323 324 324 323 322 320 319 319 321 322 321 323 324 324 324 323 323 326 328 328 328 328 328 327 326 325 325 328
342 342 341 341 341 340 338 336 334 332 333 333 331 330 327 327 329 330 329 327 327 327 327 325 324 326 328 328 328 329 330 330 330 331 332 333 333 333 332 331 329 328 328 327 326 326 326 325 324 324 324 324 324 324 324 324 323 323 323 323 323 323 321 318 317 319 320 320 322 323 323 323 323 323 324 327 328 328 328 328 327 327 326 327 328
341 341 341 341 340 339 338 335 336 335 333 333 331 329 327 328 329 327 326 327 329 329 328 326 326 328 327 326 327 329 330 329 329 328 329 330 331 332 332 331 330 328 327 327 327 326 326 325 325 325 324 324 323 323 323 323 323 323 323 323 322 322 320 316 315 316 318 319 321 322 323 322 322 323 323 325 327 328 328 328 327 326 325 325 325
341 341 341 340 339 339 338 336 337 337 334 333 332 330 328 328 328 327 326 328 331 330 329 328 329 330 329 327 327 329 329 328 328 327 328 329 329 330 330 330 331 330 327 326 326 326 326 326 325 325 324 324 324 324 324 323 323 323 323 323 322 322 320 318 316 315 315 316 318 319 320 319 319 320 321 323 326 327 328 328 328 327 325 323 321
341 341 340 339 339 338 337 337 338 338 336 335 333 332 330 329 328 328 328 329 332 332 330 331 331 331 328 328 327 328 329 328 326 325 327 328 327 327 328 328 329 330 328 326 325 325 326 326 325 325 324 325 325 324 324 324 324 324 324 323 323 323 323 322 320 316 314 315 315 315 315 314 314 315 317 318 322 326 327 328 328 327 326 324 322
341 340 339 339 338 337 338 337 338 338 338 336 335 335 333 331 331 331 332 332 333 333 332 332 332 332 329 326 327 327 328 329 328 327 327 327 326 326 326 326 327 328 327 326 326 325 324 325 325 324 325 325 325 325 325 325 325 325 324 324 323 324 324 324 324 321 318 318 317 316 314 313 313 313 313 314 319 325 327 328 328 328 327 326 324
340 339 338 337 336 337 338 337 337 337 337 337 336 336 335 334 334 334 335 334 334 334 334 334 333 333 330 327 327 327 327 329 329 329 328 327 326 325 325 325 326 326 325 325 325 324 324 324 325 325 325 325 325 325 325 325 325 325 325 324 323 322 323 324 323 322 321 320 320 320 318 317 316 316 315 314 319 326 327 328 328 328 328 327 325
340 339 338 337 335 336 338 337 336 335 335 336 336 336 335 335 336 336 336 335 334 335 335 335 333 333 332 328 327 328 328 328 328 328 328 327 327 327 326 325 325 326 325 325 324 324 324 324 324 324 325 325 325 325 324 324 323 323 323 323 323 323 323 323 322 321 321 322 322 323 322 322 320 319 317 315 319 326 328 328 328 328 328 327 326
340 339 339 337 335 335 337 337 335 335 335 335 335 335 335 336 336 336 335 335 334 335 334 334 334 333 332 329 327 327 327 326 326 326 326 326 327 327 327 326 324 324 324 324 324 325 325 325 324 324 324 324 324 324 324 322 322 323 323 323 324 323 323 323 322 322 323 324 324 324 324 324 323 319 318 319 322 327 328 329 328 328 328 327 327
340 340 339 338 336 335 336 337 335 335 334 334 334 334 335 335 335 334 334 334 334 334 334 333 333 332 332 331 328 327 326 325 325 325 325 325 325 325 326 326 325 324 323 323 324 324 325 325 325 324 324 324 323 323 322 322 323 323 323 323 323 322 322 322 322 322 322 323 325 325 325 325 324 320 318 323 326 328 329 329 328 328 328 328 328
341 340 340 339 337 335 335 336 335 334 334 334 334 334 334 334 334 334 333 334 333 332 331 330 330 330 331 330 329 328 327 326 326 326 325 324 325 325 326 326 327 326 326 325 325 324 325 325 325 325 325 325 325 324 323 324 324 324 323 323 323 323 323 322 322 321 320 322 325 325 325 325 324 322 320 323 326 328 329 329 329 329 328 329 328
341 341 340 339 337 337 337 337 336 335 335 335 335 336 335 336 335 334 335 334 332 331 330 329 329 330 330 329 329 328 327 327 327 327 326 326 326 327 327 327 327 328 327 327 327 326 326 326 326 326 326 326 325 325 325 324 324 324 324 325 324 324 324 323 322 320 321 324 325 326 326 325 324 324 323 323 325 328 329 329 329 329 328 329 328
340 340 340 340 339 339 339 339 338 337 337 336 337 337 337 336 336 335 335 334 333 332 331 332 332 332 331 331 330 330 329 328 328 328 328 328 327 327 327 328 328 328 328 328 328 327 327 327 327 327 327 326 326 325 325 324 324 325 325 325 325 325 325 325 324 323 324 325 326 326 326 325 325 325 325 325 326 328 329 329 329 328 328 329 328
339 340 340 340 340 340 340 339 339 338 338 337 337 338 337 336 336 335 335 335 334 333 333 333 334 333 333 332 331 331 330 330 329 329 328 328 328 328 328 328 328 328 328 328 328 328 328 327 328 328 328 327 327 326 325 325 325 325 326 326 325 325 325 326 326 325 326 326 326 326 326 326 326 326 326 326 327 329 329 329 329 329 329 329 329
338 339 339 340 339 339 340 339 339 339 338 338 338 338 337 336 336 335 334 335 335 335 334 334 334 334 334 333 332 332 331 331 330 329 330 329 329 328 328 328 328 328 328 328 328 328 328 328 327 327 327 327 327 326 326 326 326 326 326 326 326 326 326 326 326 326 326 326 326 326 326 326 326 326 326 326 326 328 329 329 330 330 330 330 330
338 338 338 339 339 339 339 339 339 339 338 337 337 337 336 336 336 335 334 334 335 335 335 335 335 335 335 334 334 333 332 332 331 330 330 330 330 329 329 329 329 329 328 328 328 328 328 328 327 327 327 326 326 326 326 326 326 326 326 326 326 326 326 326 326 326 326 326 326 326 326 326 326 326 326 325 326 326 328 329 330 330 330 330 330
330 333 336 337 338 338 337 337 337 337 338 337 337 337 336 336 335 335 334 333 333 334 334 335 336 335 336 335 335 335 334 334 333 332 331 331 331 330 330 330 329 329 329 329 329 329 329 329 328 327 327 327 326 326 326 326 326 326 326 326 326 326 326 326 326 326 326 326 326 326 326 326 326 326 326 326 326 326 326 327 329 330 330 330 330
320 326 329 331 334 336 336 336 336 336 336 336 336 336 336 336 335 335 334 334 333 334 335 335 335 336 336 335 335 335 335 335 334 333 333 332 332 331 331 330 330 330 329 328 328 328 328 328 328 328 328 328 327 327 326 326 326 326 326 326 326 327 327 326 326 326 326 326 326 326 326 326 326 326 326 326 326 326 326 326 327 328 329 330 330
315 320 320 324 329 332 333 335 336 336 336 336 335 334 335 335 336 336 335 334 335 334 335 334 335 336 335 335 335 335 335 334 334 334 334 334 333 333 332 331 330 330 329 329 329 329 328 328 328 328 328 327 327 327 327 327 327 327 327 327 327 327 327 327 327 327 327 327 326 326 326 326 326 326 326 326 326 326 326 326 325 326 327 328 329
311 312 314 320 325 328 329 332 334 335 336 336 336 335 335 334 335 335 335 335 335 335 335 335 335 335 335 335 335 335 335 334 334 334 334 334 334 334 332 331 330 329 329 329 330 330 330 329 328 329 328 328 328 327 326 326 326 326 326 326 325 325 326 326 326 327 327 327 327 327 327 327 327 327 327 327 327 326 326 326 325 325 326 326 327
306 308 313 318 321 323 325 328 331 332 334 334 335 336 336 335 334 335 336 335 335 336 335 335 335 335 335 335 335 335 335 335 334 334 334 334 334 334 333 332 331 330 329 329 329 330 331 331 329 329 329 328 328 327 327 326 326 326 326 325 324 324 324 324 325 325 325 326 326 326 326 326 326 327 327 327 326 326 326 326 326 326 325 326 326
303 306 311 314 315 318 321 323 326 329 330 332 333 334 335 335 335 335 335 335 334 334 334 334 333 333 333 333 333 334 334 334 334 334 334 334 334 334 333 333 332 332 331 330 329 329 331 332 331 330 329 329 328 328 329 328 328 328 327 326 325 324 324 323 323 323 323 324 324 324 325 325 325 325 326 325 326 326 326 327 327 326 326 326 326
300 303 306 308 311 314 317 319 322 325 327 329 331 332 333 334 334 333 332 332 330 329 329 329 328 329 330 330 330 331 332 333 333 334 334 334 334 334 334 333 333 333 333 332 332 331 331 331 331 331 330 330 329 329 329 329 329 329 328 328 327 326 325 325 324 324 324 323 323 323 324 324 325 325 325 326 326 326 326 327 327 327 326 326 326
298 300 302 306 309 310 313 316 319 320 323 325 327 328 329 329 329 328 327 327 326 325 324 324 325 326 326 326 326 327 330 331 331 332 333 333 334 334 334 334 334 334 333 333 333 333 332 331 330 330 331 331 330 330 330 329 329 329 329 329 328 327 327 326 326 325 325 324 324 323 324 324 324 325 326 326 326 326 327 327 327 327 326 326 326
295 297 300 303 305 306 309 311 312 315 317 319 321 323 323 323 322 322 322 323 322 320 319 320 321 321 321 321 321 323 325 327 328 329 330 330 331 331 332 332 333 333 333 334 334 333 333 332 331 330 330 330 330 330 330 330 330 330 329 329 328 328 328 328 327 327 326 325 325 324 324 324 325 325 325 325 326 326 327 327 327 327 327 327 326
294 295 296 298 300 302 304 306 307 309 312 314 316 316 317 317 316 316 316 317 316 314 314 315 315 314 315 315 316 318 320 322 324 324 324 324 325 327 328 329 330 331 332 333 333 333 333 333 332 331 330 330 330 331 330 330 330 330 329 329 329 329 329 328 328 328 327 326 325 325 325 325 325 325 325 325 325 325 326 327 327 327 327 327 327
292 293 294 295 296 298 300 302 304 305 307 310 312 313 314 314 313 313 313 311 309 308 309 309 307 307 308 310 311 313 313 316 319 319 319 318 319 321 322 324 326 328 329 330 331 332 332 332 332 332 332 331 331 331 331 330 330 330 329 329 329 330 330 329 329 328 327 327 326 326 326 326 326 326 325 325 325 325 325 326 326 327 327 327 327
291 291 292 292 293 294 296 298 298 300 304 307 308 309 310 309 308 308 307 304 301 301 302 302 301 300 301 303 306 307 308 309 312 314 314 314 314 314 316 317 319 322 323 323 324 326 327 328 329 331 331 332 332 332 332 331 330 330 330 330 330 330 330 329 329 328 328 327 327 327 327 327 327 327 327 326 326 326 326 326 326 327 327 327 327
290 290 291 291 291 292 293 293 293 296 298 299 299 300 300 301 300 300 298 296 296 296 296 296 297 297 296 298 300 301 301 302 304 307 309 309 309 310 312 312 312 314 315 314 315 318 321 321 323 326 327 329 331 331 332 332 330 330 330 330 330 330 330 330 329 328 328 327 327 327 327 327 327 328 327 327 327 327 327 327 327 327 328 328 328
289 289 289 290 290 290 290 291 291 293 293 293 294 294 294 295 295 295 295 294 294 294 293 293 293 294 294 295 294 295 296 296 298 301 303 304 305 306 307 307 306 308 309 310 311 312 313 313 315 318 321 323 326 328 330 331 330 329 329 329 329 330 329 329 329 328 328 328 327 328 328 328 328 328 327 327 328 328 328 328 328 328 328 328 328
288 288 288 289 289 289 289 289 290 290 291 292 292 293 292 293 293 293 293 293 293 293 292 291 292 293 293 293 292 292 293 293 294 295 297 298 299 300 301 302 303 304 305 306 306 306 307 307 308 312 315 317 320 323 326 328 330 330 330 330 331 330 330 329 328 328 328 328 328 328 328 328 327 327 326 326 327 328 329 329 329 329 329 329 329
287 287 288 288 288 288 289 289 289 289 289 290 291 291 292 292 292 292 293 293 293 293 293 292 291 291 291 291 291 291 290 291 292 291 292 293 294 294 295 297 298 299 300 300 301 302 303 303 304 307 310 313 315 318 321 323 326 328 329 330 330 329 332 330 327 328 328 328 328 328 328 328 328 327 326 326 326 326 328 329 329 330 329 330 329
287 287 287 287 287 287 288 288 288 288 288 289 289 290 291 292 294 295 295 294 294 293 293 292 289 288 289 290 291 291 290 289 290 289 289 290 291 291 291 292 293 294 295 295 297 298 299 300 301 303 306 308 311 314 316 317 319 323 327 329 330 331 333 330 327 329 329 328 329 328 328 328 328 327 327 326 325 325 326 327 328 329 329 330 329
287 287 287 286 286 286 286 287 287 287 287 288 288 288 289 290 291 293 293 292 291 291 291 291 289 288 288 289 289 289 289 288 288 288 288 288 290 290 289 290 290 291 291 292 293 294 295 297 298 299 302 304 307 311 313 312 313 317 321 323 326 329 330 329 330 331 329 328 329 328 328 328 328 327 326 326 326 326 325 325 326 326 327 327 328
287 286 286 286 285 285 285 286 286 286 286 286 287 287 287 287 288 288 289 288 289 289 289 289 289 288 287 287 287 288 288 288 287 287 287 287 288 288 288 288 289 290 291 291 292 292 293 293 294 295 298 301 304 307 309 309 310 312 312 314 318 322 324 326 329 330 330 329 328 328 328 327 327 327 327 327 326 326 325 325 324 324 325 325 325
287 286 286 285 285 285 284 284 285 285 285 285 286 286 287 287 287 287 287 287 287 287 288 288 287 286 286 286 286 286 287 288 287 286 286 286 287 288 287 287 288 289 289 291 292 293 293 292 292 292 295 298 301 303 305 306 308 308 308 309 312 316 319 321 325 327 329 330 328 327 327 327 327 327 327 326 326 326 326 325 325 324 324 324 324
287 286 286 285 285 284 284 284 284 284 284 284 285 285 286 286 286 286 287 286 286 286 286 287 286 285 284 284 285 286 286 286 286 286 285 285 286 287 287 287 288 288 289 289 291 292 292 292 292 293 295 297 298 300 301 302 303 305 306 308 310 312 313 316 319 322 325 327 329 328 327 327 326 326 326 326 326 326 326 326 325 325 325 325 324
286 286 286 285 284 284 284 283 283 283 284 284 284 284 285 285 285 286 286 286 285 285 285 286 285 283 283 284 284 285 285 285 285 285 285 284 285 285 286 287 288 289 290 289 290 290 291 291 292 293 295 296 297 298 298 299 300 302 304 306 308 309 311 313 315 316 318 321 324 325 325 326 326 326 326 326 326 326 326 326 326 325 325 325 325
286 286 286 285 285 284 284 284 283 283 283 283 283 283 284 284 284 285 285 285 285 285 285 285 285 283 283 283 283 284 284 284 284 284 284 284 284 284 285 286 287 288 289 289 289 290 290 290 290 292 294 294 295 295 296 297 299 301 303 304 304 306 308 310 311 312 314 316 318 321 322 324 324 324 324 324 325 326 326 326 325 325 325 325 325
Wind_Speed
23 25 22 21 20 20 18 17 17 16 18 17 17 17 16 16 16 16 15 14 14 14 15 16 16 15 14 13 12 12 13 15 16 16 16 16 16 15 15 15 13 13 13 11 10 10 10 10 9 9 9 9 9 9 9 9 9 10 11 11 11 11 10 10 11 10 9 9 9 9 9 10 10 9 8 8 7 7 6 6 5 7 8 6 7
26 25 22 21 20 20 19 18 16 15 17 17 16 16 16 16 16 15 14 14 13 13 15 15 15 15 14 12 11 12 13 14 15 16 16 16 15 14 13 13 13 12 12 12 11 10 10 10 10 10 9 9 8 8 9 8 8 8 10 11 10 10 9 10 10 9 8 8 8 8 8 7 9 9 8 7 7 6 5 4 3 5 7 7 8
26 26 23 21 20 19 19 18 17 15 17 18 16 16 16 16 15 15 14 13 13 13 13 14 15 14 13 12 11 12 13 13 14 15 15 15 14 13 12 12 12 13 12 10 9 9 9 8 8 8 9 8 7 7 7 7 7 7 8 9 9 9 8 9 8 8 7 6 7 7 7 6 6 6 7 6 6 5 5 4 3 3 6 6 8
27 26 23 22 20 18 19 17 16 15 16 17 16 16 16 15 15 14 14 13 13 13 13 13 13 12 12 12 11 12 13 14 14 15 16 15 14 13 13 13 13 13 11 10 8 7 5 5 4 4 5 5 5 5 4 4 4 5 6 6 7 7 6 7 6 5 5 5 5 5 5 5 5 4 4 5 5 5 5 6 5 4 4 5 6
28 27 23 23 19 18 18 17 16 15 15 16 17 16 16 15 15 14 13 13 13 13 14 12 11 11 11 11 12 13 14 15 15 15 15 15 14 13 13 12 11 10 11 11 9 7 4 3 2 2 1 2 1 1 0 0 0 2 3 3 4 5 5 5 4 3 2 3 2 2 2 2 4 4 2 2 4 4 4 5 5 5 5 5 5
29 27 25 23 20 19 19 17 15 15 15 15 17 16 15 15 15 14 12 13 13 14 15 13 11 10 10 11 13 13 14 14 14 14 14 14 13 13 12 11 10 9 9 9 9 8 6 3 3 4 5 6 6 5 5 5 5 4 1 2 3 4 5 3 3 2 1 1 1 2 3 2 2 4 2 1 2 3 4 4 4 4 4 5 4
29 28 26 25 21 20 19 17 15 15 15 15 17 16 15 15 15 13 12 12 12 13 13 12 10 9 9 10 12 12 12 13 13 12 13 12 12 12 12 12 10 9 8 8 7 7 6 4 2 3 3 5 5 7 6 6 7 7 6 4 5 5 5 4 3 2 2 1 1 4 6 5 4 3 4 1 1 3 3 4 3 2 2 2 2
29 29 27 25 22 21 20 18 16 15 15 16 16 16 16 16 15 13 11 11 12 12 11 10 9 8 8 8 9 10 11 12 12 11 11 10 10 10 10 9 8 7 5 4 4 5 5 5 5 3 2 2 2 4 5 6 5 6 7 6 6 6 6 5 5 4 3 1 2 2 4 5 6 3 4 4 3 4 4 4 3 4 4 3 4
28 28 28 25 22 22 20 18 16 15 15 16 15 15 16 16 14 13 11 9 10 11 10 9 8 8 7 6 7 8 9 11 11 10 10 8 8 9 6 5 4 3 2 2 2 3 4 5 7 7 4 4 4 3 3 5 6 5 6 6 6 7 8 7 7 6 4 1 2 0 3 5 6 5 5 6 5 5 5 5 5 6 6 6 6
28 28 28 25 22 21 20 18 16 16 16 16 15 15 16 15 14 12 11 9 8 10 10 8 8 8 6 6 6 7 8 9 9 9 8 6 7 7 4 3 2 2 2 1 2 4 3 4 6 7 6 6 5 4 3 4 5 6 7 7 7 8 9 9 9 8 6 3 1 2 2 4 5 5 5 7 7 6 7 6 6 7 7 8 8
26 28 27 24 22 20 20 17 16 17 16 16 16 15 15 15 14 12 11 9 8 8 8 8 8 7 5 4 4 4 6 8 8 7 6 5 5 5 4 3 2 2 3 1 2 3 2 2 3 5 5 7 6 5 4 4 4 5 6 7 8 9 10 10 11 10 9 6 4 2 1 2 4 5 6 8 7 7 9 8 8 8 8 9 9
25 27 25 24 22 19 19 17 16 16 16 16 15 15 15 15 15 13 11 10 8 7 6 7 7 6 4 3 2 2 3 5 6 7 6 5 6 5 3 3 3 3 3 2 2 3 2 1 2 4 5 5 6 5 5 5 5 5 5 6 7 8 9 11 12 12 12 10 8 6 3 2 3 5 7 9 9 9 11 11 10 10 11 11 9
25 25 24 23 21 19 19 17 16 16 16 15 15 15 14 15 15 14 12 11 9 6 5 4 4 5 5 5 3 3 3 1 3 5 6 6 6 4 3 3 2 2 2 2 2 3 2 2 2 3 5 5 5 5 5 5 6 6 6 6 7 8 8 8 11 13 14 13 11 10 9 6 5 6 8 10 11 12 12 12 12 12 12 12 10
24 23 22 21 20 19 18 17 17 16 16 15 15 14 14 14 13 13 11 9 7 5 4 4 3 3 3 6 6 5 4 4 3 3 4 5 6 5 4 4 3 2 2 2 2 3 3 3 3 3 4 6 6 5 5 6 6 6 7 8 8 8 8 7 8 12 14 15 14 13 13 12 10 9 10 11 13 14 14 14 14 13 14 13 13
21 21 21 20 21 20 18 18 17 17 16 15 14 13 14 13 12 11 9 8 7 5 4 4 4 2 3 5 6 6 5 5 4 4 5 5 5 6 5 4 5 3 2 3 3 3 5 4 4 4 4 5 7 7 7 7 8 8 8 8 8 9 8 6 7 9 13 15 16 16 15 16 14 13 13 13 14 15 15 15 15 15 15 16 16
18 19 20 20 21 21 19 18 17 16 16 15 13 13 13 12 11 10 10 9 7 6 6 4 3 3 3 4 6 7 7 7 6 5 6 7 6 5 4 5 7 5 3 5 5 4 6 6 5 6 6 7 7 8 8 9 10 9 9 10 10 11 10 8 9 9 11 13 15 17 17 18 18 18 17 16 16 17 17 17 17 17 17 17 18
18 19 20 20 20 21 19 18 17 15 15 15 13 13 12 12 11 10 10 10 9 7 6 5 3 3 4 5 6 6 8 7 6 6 5 7 6 5 5 5 7 7 5 6 6 5 6 8 8 8 8 9 9 9 10 10 10 10 11 13 13 13 13 13 13 12 11 12 13 15 17 18 19 19 20 20 19 19 20 20 20 19 19 20 20
18 18 19 19 20 20 20 18 16 14 14 14 13 13 12 12 11 11 10 10 9 7 7 5 4 3 4 4 7 6 7 7 7 7 7 7 7 7 7 7 7 7 8 9 8 8 8 9 10 10 10 10 11 11 11 11 12 12 13 14 14 15 15 15 16 16 15 14 15 15 16 17 18 19 20 21 20 20 20 21 21 21 21 21 22
17 16 16 17 20 21 20 18 17 15 14 13 12 12 11 11 11 10 10 9 9 8 7 6 4 4 4 3 7 8 7 8 8 9 9 10 11 10 10 9 9 9 11 12 12 12 12 11 11 12 13 12 13 13 13 14 16 16 16 17 18 18 18 18 20 20 19 18 18 17 17 17 18 19 21 22 21 20 21 21 22 22 22 22 22
16 15 14 15 19 20 20 18 17 15 14 13 11 10 10 10 9 9 9 9 9 8 8 7 6 5 5 3 5 8 9 9 9 10 11 12 12 12 12 11 11 11 11 13 14 15 14 13 13 14 15 15 15 16 16 17 19 19 19 20 20 20 20 21 22 22 22 21 20 20 19 18 19 20 21 22 21 21 21 22 22 22 22 22 22
15 13 13 13 16 19 19 18 16 14 13 12 10 9 9 8 8 8 8 8 8 9 9 8 7 7 6 5 5 7 9 10 11 11 11 11 12 12 13 13 13 13 13 14 14 15 15 15 14 15 16 17 18 19 20 20 21 21 21 21 22 22 21 22 23 23 24 24 23 22 20 19 19 19 20 20 20 21 21 22 22 22 22 22 22
15 14 12 11 13 16 17 17 14 12 12 10 10 9 9 8 7 7 6 7 8 9 9 8 8 8 8 7 6 7 8 10 10 11 11 11 12 13 12 12 11 12 13 14 14 15 16 16 17 17 18 18 19 21 22 23 22 22 22 23 24 25 24 24 25 26 26 26 24 22 20 19 18 18 19 20 19 20 21 22 22 22 22 22 23
14 14 12 10 11 13 13 12 12 11 11 10 9 9 9 8 6 6 5 6 7 8 8 8 8 9 9 9 8 8 8 7 8 8 8 8 9 10 9 9 10 11 11 12 13 14 15 16 17 19 20 20 21 22 23 24 24 24 23 23 24 25 26 27 28 28 27 26 24 23 21 20 19 17 18 20 20 21 21 22 23 22 23 23 23
14 12 10 10 11 12 10 8 9 11 11 10 9 8 9 8 7 7 6 6 6 6 7 6 6 6 6 6 6 6 5 4 4 5 4 5 7 8 9 10 11 12 13 14 14 14 15 16 17 18 20 21 22 23 24 25 25 23 22 22 23 23 24 25 26 26 25 24 24 23 22 21 21 20 20 20 21 22 23 24 24 24 25 25 25
13 12 10 10 10 10 10 8 8 9 10 10 10 9 8 7 8 7 5 6 5 6 6 6 6 4 3 4 4 4 4 4 4 5 6 7 8 9 10 11 12 12 13 14 15 15 15 16 17 18 18 19 20 21 22 23 23 22 22 22 23 23 23 23 23 23 24 24 25 24 24 23 23 23 23 23 23 23 24 25 26 26 26 26 27
12 11 11 10 9 8 9 9 8 9 9 9 10 9 8 7 7 5 5 6 6 7 7 7 7 6 5 5 5 4 5 5 5 6 7 9 10 11 11 11 12 12 13 14 15 15 15 16 17 17 17 18 19 19 19 20 20 21 22 23 23 24 24 24 24 24 25 26 27 26 25 25 25 25 25 25 25 25 25 26 26 27 27 27 27
12 10 10 9 8 8 8 8 8 8 8 8 9 10 8 5 4 3 5 5 6 8 9 9 9 8 8 8 9 8 8 7 7 7 7 9 10 11 12 13 13 14 14 15 16 17 17 17 17 17 17 18 19 19 19 20 21 22 24 24 25 26 26 26 27 27 28 28 29 29 28 28 29 28 28 28 27 27 27 27 27 28 28 28 28
9 8 10 10 8 7 7 7 7 8 7 7 8 8 6 4 4 4 5 6 6 7 8 9 10 10 9 9 10 11 11 11 12 11 11 10 10 11 12 13 14 14 14 15 16 17 18 18 19 19 19 20 20 21 21 21 22 23 25 26 27 28 29 29 30 30 30 31 32 32 32 32 32 31 31 30 30 30 30 29 29 29 29 29 29
11 8 5 5 6 7 6 5 5 7 7 6 7 7 6 6 6 5 5 7 8 8 8 8 8 8 9 10 10 11 12 13 14 15 14 14 12 12 13 13 13 14 16 17 17 18 19 18 18 19 19 20 22 22 22 21 22 23 25 26 27 28 29 30 31 32 32 33 34 34 34 33 33 32 32 31 31 32 31 31 31 30 30 30 30
21 18 14 10 3 4 5 4 4 5 5 5 4 4 5 6 7 6 6 7 8 9 8 9 8 8 9 10 10 11 12 13 14 15 15 16 15 15 15 15 15 15 17 18 17 19 20 19 19 19 20 21 22 22 21 22 23 24 25 27 28 28 28 29 30 31 32 33 34 36 36 35 35 34 34 34 33 33 33 32 32 31 31 31 31
27 25 22 18 11 6 4 2 3 5 6 4 3 3 3 5 7 7 6 7 8 9 9 10 10 10 10 10 11 12 12 13 13 13 15 16 17 17 16 16 17 17 17 18 19 19 18 19 21 22 22 23 23 22 22 24 26 26 27 29 31 31 32 32 32 32 33 33 34 35 36 37 36 36 36 36 35 35 35 34 33 32 32 32 32
29 28 26 23 18 15 11 7 3 2 4 3 3 3 3 4 6 6 6 6 7 7 7 8 10 10 10 10 11 12 12 13 14 13 14 16 18 19 17 15 15 15 15 18 21 21 19 20 21 22 23 24 24 24 24 26 29 30 30 32 33 34 35 36 36 36 36 36 36 37 38 38 38 38 38 38 37 37 36 36 35 34 33 33 33
27 28 27 27 24 22 18 14 9 5 3 1 1 2 3 4 4 4 4 5 4 4 5 6 8 8 8 9 11 11 11 12 13 13 13 15 17 19 18 16 16 15 12 15 18 20 22 23 22 22 23 23 24 25 25 27 29 30 30 31 32 33 33 35 36 37 38 39 39 40 40 41 41 41 41 41 40 39 38 36 36 35 34 33 33
27 29 30 29 28 25 23 20 16 12 9 7 5 4 3 3 3 2 3 4 5 6 5 5 6 6 7 8 9 10 10 11 11 13 13 14 15 16 17 16 17 17 15 15 16 18 21 23 24 24 24 24 26 27 27 28 29 29 30 31 31 31 31 32 33 33 35 36 37 38 39 40 41 41 42 42 41 40 38 37 36 35 34 33 33
30 31 31 30 29 27 25 24 22 20 16 14 13 13 10 8 7 9 10 10 11 14 15 15 16 15 14 14 15 14 12 11 11 11 13 13 14 15 16 16 17 18 18 17 18 19 20 21 22 23 24 25 27 28 28 29 30 30 31 32 31 31 31 31 32 32 33 33 34 36 37 38 38 38 39 39 39 39 38 37 36 35 34 33 33
33 32 31 30 31 29 27 26 25 24 23 22 20 20 19 18 17 17 17 17 19 22 22 21 21 20 20 20 20 19 16 15 14 12 12 12 13 15 16 18 18 19 19 19 19 21 21 20 20 19 21 23 24 26 27 28 30 31 32 31 31 31 31 31 31 32 33 33 35 36 36 37 37 37 37 37 38 38 37 37 36 36 35 34 33
36 35 34 33 33 32 30 29 28 27 26 26 25 25 25 25 26 26 25 25 25 27 27 26 25 24 23 24 24 22 20 18 18 16 15 14 14 13 15 16 17 18 19 20 20 21 22 22 22 21 21 22 23 25 26 28 29 30 30 30 30 31 31 31 31 32 32 33 35 36 36 36 36 36 36 36 36 37 37 36 36 35 35 34 32
37 37 37 36 35 34 33 32 31 29 28 27 27 27 27 28 30 30 30 30 30 31 31 30 31 30 29 27 26 25 24 22 20 20 19 20 19 18 17 16 16 16 16 18 19 21 22 23 24 24 23 23 24 25 26 28 29 30 30 30 30 31 31 32 33 33 33 34 35 35 35 36 36 36 35 35 35 35 36 35 34 34 34 32 31
37 38 38 38 37 37 36 34 33 32 29 28 27 26 27 28 29 30 31 33 33 33 33 34 35 35 33 31 30 29 29 26 23 22 22 23 22 22 22 20 19 17 16 17 18 19 21 23 24 26 26 25 25 26 28 29 30 30 30 31 32 33 34 33 33 34 33 33 33 33 33 33 33 34 34 34 33 34 34 34 33 33 33 31 29
38 38 40 41 40 39 39 39 37 34 32 30 29 28 28 29 30 31 32 34 33 33 34 34 36 37 36 35 33 32 32 30 28 25 24 25 25 25 24 24 23 22 21 22 22 21 20 20 21 23 25 26 26 26 27 28 30 31 31 32 34 33 32 32 32 32 31 31 30 28 27 27 28 29 29 30 30 31 31 32 32 31 31 30 28
42 41 41 41 40 40 41 40 38 38 37 35 33 32 31 30 30 31 31 32 32 33 35 34 33 34 36 37 36 35 34 34 33 30 29 29 28 27 26 26 26 25 25 25 25 24 23 23 23 21 20 22 24 25 27 27 24 23 24 26 30 31 30 30 30 28 28 27 24 22 22 24 25 23 23 24 26 28 29 29 29 29 29 29 27
40 41 39 38 39 40 41 39 39 39 39 37 35 33 30 27 26 25 26 28 30 32 35 36 33 32 34 36 37 36 35 36 36 34 33 32 31 31 29 29 29 27 26 26 26 26 26 27 28 26 25 22 20 22 25 22 16 15 17 16 20 25 24 22 24 25 23 19 17 20 25 26 23 20 20 22 23 24 26 27 28 28 28 27 26
37 38 37 39 40 41 41 41 41 40 38 37 35 33 29 27 26 26 27 29 29 30 33 36 35 34 34 35 36 36 36 36 36 35 34 34 33 33 32 31 31 30 28 28 28 29 30 30 30 29 27 26 24 23 24 19 17 19 16 8 7 12 13 13 17 22 19 17 20 26 29 25 20 19 21 22 23 23 24 25 27 27 27 27 26
36 37 36 38 39 38 38 39 41 40 38 37 35 33 30 28 28 28 29 29 30 31 34 36 37 36 36 35 35 36 36 35 35 36 35 34 34 34 33 32 32 32 31 31 30 30 30 30 30 28 27 27 26 24 24 21 19 18 11 5 3 4 7 7 11 20 21 21 25 26 24 22 22 23 22 22 22 23 23 24 26 27 27 27 26
32 33 33 34 35 35 34 35 37 38 39 38 36 35 34 32 30 30 30 30 32 35 36 37 39 39 37 35 34 34 35 35 35 35 36 35 34 33 34 34 34 33 32 32 32 30 30 30 30 28 26 25 25 25 24 24 24 20 13 9 6 3 4 6 10 15 17 19 21 21 21 24 26 25 23 23 22 22 22 23 23 24 25 26 26
28 28 29 32 34 34 34 34 35 36 37 37 37 37 38 37 35 32 31 30 30 32 31 30 32 35 35 33 33 32 33 34 35 35 36 36 34 33 34 35 35 35 35 34 34 33 33 31 30 28 26 24 24 23 25 28 26 22 19 17 15 13 12 13 10 8 11 16 20 22 24 25 23 22 23 24 23 23 23 24 24 23 24 25 26
25 26 28 31 33 34 35 35 35 35 35 35 35 35 36 36 34 31 27 26 24 24 24 24 25 29 31 32 33 33 32 33 35 35 36 36 35 34 34 35 35 35 36 35 35 36 35 32 31 30 27 25 25 23 24 29 28 24 25 25 24 23 22 19 12 8 10 14 17 20 22 21 21 23 25 25 24 24 25 25 25 24 24 25 26
23 25 27 30 31 33 35 35 35 35 34 34 34 34 32 31 31 29 26 25 23 22 22 23 25 28 30 32 33 33 32 32 33 35 36 36 35 35 35 35 35 35 35 34 33 34 34 33 33 32 30 26 25 23 22 24 24 25 29 29 26 25 25 23 20 16 10 9 13 16 19 22 24 26 26 25 26 27 27 26 24 24 25 26 26
23 24 25 27 28 31 33 35 36 35 33 34 34 33 31 30 29 28 26 25 23 23 23 24 27 30 32 33 32 31 31 31 31 33 34 35 34 33 34 34 34 34 34 33 31 31 32 32 32 32 31 28 25 24 23 23 22 24 27 28 26 26 26 24 24 22 14 10 11 11 15 20 20 23 25 24 26 27 27 26 24 24 25 26 27
23 24 24 26 28 29 32 35 35 34 33 33 33 33 32 30 29 27 26 25 24 25 25 24 27 32 33 33 30 29 29 29 30 31 32 34 33 32 32 32 32 31 30 32 32 32 31 30 30 28 27 27 26 24 23 23 23 23 24 24 24 24 23 19 20 23 19 14 12 10 14 16 15 19 21 21 24 26 26 26 26 27 28 28 27
22 23 24 25 27 28 31 33 34 33 32 32 32 32 32 31 29 27 25 25 25 25 25 24 27 31 32 31 29 28 27 27 29 30 31 33 32 31 31 30 29 29 29 30 31 31 31 31 30 26 25 25 24 24 24 23 24 23 21 22 22 21 19 17 19 23 18 13 13 11 13 17 18 20 24 25 27 27 26 28 29 30 30 29 28
Wind_Direction
174 171 169 167 165 162 159 157 157 156 150 147 145 143 142 141 142 142 142 142 140 140 139 138 135 135 136 140 149 143 135 140 143 145 145 143 142 141 140 135 134 123 106 99 93 88 88 96 101 104 102 100 102 101 104 108 106 104 105 103 98 88 78 85 90 90 92 93 89 93 110 125 128 122 112 103 108 123 120 120 133 144 140 134 141
172 171 170 167 164 162 161 160 158 156 153 151 146 146 144 143 143 144 145 143 144 142 141 142 141 140 141 146 149 142 134 135 140 148 149 148 147 147 144 138 137 126 107 102 100 93 90 88 85 88 87 88 92 93 98 100 102 105 109 106 98 89 86 92 92 92 91 94 94 92 100 121 135 133 123 109 114 123 120 129 134 159 165 151 150
169 170 170 165 163 163 162 159 158 156 156 152 148 148 146 146 146 146 148 145 144 143 145 144 140 143 151 153 145 138 135 132 134 141 146 149 148 146 144 138 132 118 103 100 104 105 105 104 95 88 84 81 84 89 95 100 100 102 111 110 102 94 95 100 99 100 101 101 98 92 97 111 131 142 141 131 135 129 112 125 129 149 171 169 163
168 169 168 163 162 164 162 159 159 157 157 155 150 148 147 147 147 149 149 146 144 145 146 141 142 153 158 151 140 136 134 132 129 129 131 131 129 128 126 124 117 108 107 111 116 123 125 129 128 110 99 90 85 85 90 97 102 102 108 113 111 107 107 109 107 107 107 106 102 91 96 110 115 130 151 161 163 141 116 108 107 117 148 168 166
168 167 166 162 162 165 161 160 160 157 157 157 153 148 147 148 147 150 151 149 147 147 146 146 154 160 155 145 140 136 134 133 127 125 122 116 115 116 113 113 112 111 122 128 121 124 144 157 179 210 226 232 188 117 271 313 117 117 110 127 130 124 127 123 116 112 103 106 120 94 76 120 119 116 117 156 170 162 143 117 109 124 135 148 150
166 165 164 162 164 165 160 160 159 157 156 158 156 149 147 147 146 149 147 147 147 149 151 154 154 151 148 144 144 139 137 134 126 127 128 123 121 122 120 120 121 115 122 137 132 123 136 160 216 246 257 256 253 255 250 262 262 250 241 192 192 151 145 149 145 160 176 132 215 253 274 242 155 144 148 90 162 176 167 147 113 117 131 145 161
165 163 163 163 164 164 161 159 159 157 156 160 156 149 147 144 144 143 142 147 148 151 154 153 147 146 145 142 147 145 144 138 131 138 140 134 129 129 128 129 130 127 131 149 156 146 147 156 185 224 250 269 260 245 225 229 249 250 250 232 224 195 171 180 187 214 236 270 275 258 260 235 225 178 182 231 184 194 193 188 157 142 167 162 201
163 163 163 162 164 165 162 159 160 158 156 158 154 150 148 142 143 143 145 151 146 149 154 152 148 149 144 141 149 150 150 143 139 143 143 140 132 132 135 137 139 142 153 167 183 191 190 186 185 187 232 272 217 221 227 210 219 245 249 239 232 220 202 197 200 216 230 322 347 260 249 217 223 218 194 236 236 213 221 220 213 209 225 229 254
163 163 163 162 163 166 162 160 161 156 156 155 152 150 147 143 147 148 150 151 144 148 152 156 153 150 146 148 152 153 155 151 147 143 146 148 138 139 146 150 143 143 148 157 227 249 236 225 212 200 204 223 209 216 251 219 208 224 241 241 235 232 223 210 201 210 226 308 15 142 216 210 223 233 215 245 246 223 232 240 248 238 227 230 248
163 163 163 161 160 165 162 159 160 156 155 151 148 148 147 148 149 151 152 148 144 146 144 148 147 143 147 150 151 153 158 157 155 152 154 154 145 150 162 172 156 151 143 141 265 268 256 261 230 202 203 215 218 217 221 217 221 233 241 248 244 239 234 225 211 210 225 241 24 92 173 214 231 244 235 250 246 232 244 251 265 261 242 237 242
163 164 163 160 157 164 164 161 160 158 156 149 147 147 149 150 150 152 149 144 147 147 140 139 132 127 136 144 138 143 153 155 159 160 162 163 161 172 186 205 239 216 195 208 247 235 224 281 223 190 211 221 211 203 206 219 253 262 249 253 257 247 239 233 223 213 221 231 225 186 112 220 232 243 245 258 254 242 253 261 269 270 259 251 245
162 164 163 160 159 164 165 162 161 161 158 150 149 152 153 151 150 149 149 154 160 158 148 139 130 134 150 154 126 135 156 155 168 168 167 173 174 188 195 211 250 239 234 240 216 232 233 226 200 190 200 223 231 229 237 247 260 267 257 261 270 261 246 238 232 220 218 228 229 224 238 257 236 236 240 253 253 246 254 263 267 267 266 259 250
162 164 163 163 163 165 165 160 160 162 159 154 155 158 156 153 151 152 160 167 165 160 159 160 156 159 178 193 180 187 212 206 196 182 178 185 183 194 191 196 236 229 230 233 227 242 240 214 229 219 200 218 250 257 261 259 252 251 258 263 270 272 261 249 239 228 221 227 231 230 234 240 242 236 238 247 248 246 251 255 261 261 262 260 255
160 165 165 167 167 166 165 161 161 163 162 160 161 163 161 157 158 163 168 167 165 170 177 186 182 175 210 222 212 208 239 257 255 232 217 208 199 209 204 210 252 257 228 237 266 245 254 268 241 243 234 229 237 249 255 255 260 256 258 263 268 275 273 261 245 234 229 229 231 234 235 236 238 238 244 251 250 248 251 251 255 258 256 252 251
154 163 165 168 168 167 168 165 163 164 166 165 165 167 168 165 165 170 170 164 168 176 168 171 179 206 249 241 226 215 235 246 254 259 250 248 236 234 226 222 242 268 302 270 281 265 268 289 255 250 260 250 241 246 254 257 269 265 257 264 268 276 278 266 251 242 238 236 236 237 239 239 239 240 246 257 256 251 253 254 255 257 257 253 251
150 158 164 168 168 169 169 167 165 164 167 170 170 169 173 173 170 173 175 173 178 180 170 175 200 230 264 249 231 217 222 235 251 263 249 251 261 258 248 245 246 257 300 270 271 274 268 284 274 264 265 266 259 256 265 266 270 266 264 275 280 286 289 278 268 258 246 244 244 244 246 246 244 241 242 252 260 258 256 256 258 258 258 258 258
154 158 163 166 169 170 169 168 168 165 166 170 173 173 176 179 178 180 180 182 188 191 192 204 219 238 282 253 229 219 217 229 247 255 240 241 260 269 262 264 256 249 261 263 269 275 272 280 275 273 274 272 266 264 271 273 275 274 274 280 286 289 290 286 281 273 262 258 257 255 255 254 252 249 245 246 254 260 259 259 260 260 260 260 262
155 159 163 165 169 171 171 170 172 171 168 170 174 175 178 182 184 188 187 191 198 202 205 216 228 238 298 260 221 221 223 238 254 253 245 248 261 270 267 263 258 255 260 264 268 274 280 283 276 276 279 275 271 271 274 273 273 276 275 274 277 282 284 285 284 281 277 273 271 268 265 262 260 258 255 250 253 259 259 260 262 262 262 262 263
151 159 163 167 171 172 172 173 177 176 174 174 176 177 180 185 188 194 197 201 210 215 219 228 239 246 296 278 223 223 229 241 252 256 258 261 265 267 269 265 262 267 270 269 269 274 280 280 275 275 275 273 271 271 272 271 272 274 274 273 276 280 281 279 280 280 279 278 278 278 275 271 267 264 262 257 255 259 259 260 263 263 262 263 264
148 157 162 171 174 174 174 177 181 180 179 176 175 178 182 188 191 199 206 212 220 226 234 240 247 257 282 286 234 228 234 242 249 257 260 265 269 269 271 267 261 263 268 270 272 275 277 277 271 267 269 270 270 271 271 273 279 281 279 279 281 281 278 276 277 279 279 279 279 280 281 281 275 269 264 259 257 259 260 262 264 262 262 264 266
148 154 157 169 177 178 177 180 185 182 180 175 176 181 184 189 195 205 212 221 230 235 240 242 247 263 274 279 260 243 244 250 257 260 259 262 265 267 271 270 262 258 261 264 268 273 276 277 273 268 268 268 269 271 271 276 283 285 282 282 283 281 277 275 276 278 278 278 278 278 282 285 284 274 262 257 258 259 260 263 263 261 261 265 266
149 153 154 162 174 180 182 186 189 185 182 181 184 187 189 192 198 206 216 230 239 244 247 248 253 265 270 273 275 269 267 267 270 269 268 265 262 264 269 273 269 264 264 263 266 269 272 274 274 273 273 273 273 272 272 276 281 283 284 282 281 280 279 277 277 279 279 277 277 279 281 284 286 278 261 255 259 261 260 261 261 260 261 264 267
154 157 160 160 164 173 179 187 191 190 191 193 195 196 197 194 195 200 212 232 243 250 254 258 264 272 273 275 279 282 280 282 284 281 279 271 264 264 265 272 275 277 276 274 274 275 278 277 277 277 278 280 279 277 277 279 283 286 286 284 283 282 283 282 281 280 279 277 278 281 283 284 283 279 267 261 263 263 260 259 260 261 262 264 267
158 157 163 169 167 166 167 179 190 193 194 195 197 198 195 195 202 206 211 228 246 251 249 255 262 277 290 290 287 291 285 281 287 280 277 280 282 278 278 281 275 278 280 277 279 281 285 283 282 283 283 283 282 282 282 282 285 287 287 286 286 286 287 286 284 279 275 275 278 281 283 283 282 279 274 269 266 263 259 259 260 261 263 264 265
159 157 165 177 178 175 172 175 184 190 194 197 198 192 190 201 211 215 227 236 249 252 245 249 252 257 299 313 302 312 309 295 290 274 272 280 290 291 287 284 276 280 284 281 282 284 286 286 286 286 286 287 286 286 286 285 286 287 288 289 290 290 289 289 287 281 277 278 280 281 282 282 282 279 277 274 269 264 261 260 261 262 263 264 264
161 164 169 176 181 185 185 183 186 196 201 209 214 202 193 205 210 221 249 249 256 263 256 256 259 255 267 280 268 284 304 305 300 287 290 289 290 294 294 291 284 286 291 289 289 290 289 289 290 290 290 290 289 290 289 289 290 291 292 293 293 292 292 291 289 286 283 283 283 283 282 282 281 279 278 276 270 266 265 265 264 264 264 264 264
158 164 168 172 179 184 191 194 194 201 204 212 220 212 204 211 216 240 269 267 271 272 269 269 270 265 267 270 261 263 271 279 284 281 292 297 296 297 297 296 292 294 296 293 292 293 291 290 292 293 294 293 292 292 292 292 292 294 295 295 296 295 294 293 292 290 288 287 286 287 286 284 283 281 279 277 273 268 266 266 266 265 264 264 264
140 151 165 168 175 182 190 198 197 204 209 206 208 211 210 216 222 241 276 289 290 286 284 279 274 271 273 278 276 276 274 275 278 273 275 285 295 301 300 294 289 292 295 295 296 296 294 290 290 291 293 294 294 294 294 293 292 293 294 294 295 293 293 293 292 292 291 291 290 290 289 288 286 284 283 280 278 274 270 267 266 266 265 265 265
59 68 111 143 169 180 177 182 190 201 210 208 209 216 218 219 226 234 266 286 291 297 296 287 284 280 275 276 280 282 280 279 279 275 273 275 277 285 293 292 288 292 294 296 299 301 300 296 292 291 291 293 294 292 291 291 291 292 292 293 293 293 293 292 291 291 291 291 291 291 290 289 288 287 286 283 281 279 275 272 268 266 266 266 266
51 57 57 57 78 169 169 179 187 191 196 195 203 226 235 236 245 252 263 272 280 288 292 294 293 287 285 288 289 289 289 287 287 285 280 277 273 274 281 285 285 287 291 293 296 300 301 299 296 295 296 297 296 293 289 289 290 291 291 291 292 293 294 293 292 290 289 288 287 288 288 288 287 287 286 284 283 281 280 277 274 270 267 267 267
55 59 54 55 66 76 79 149 189 192 193 195 199 224 249 253 262 269 269 276 285 289 293 297 293 291 295 298 298 296 296 295 295 294 286 283 281 279 280 280 284 288 287 286 287 290 296 298 296 295 297 298 298 295 292 292 292 292 291 290 290 290 290 290 290 289 287 286 286 286 286 285 285 284 284 284 284 283 283 281 279 276 272 270 270
52 53 53 61 70 68 65 68 75 143 186 206 217 225 250 267 275 277 280 289 295 294 291 287 286 294 299 294 294 296 299 299 297 297 293 288 286 284 282 279 289 300 295 289 286 284 290 294 294 293 293 294 295 293 291 291 291 292 293 293 293 290 287 287 287 287 287 286 286 285 285 285 284 283 283 283 283 283 283 283 282 280 277 275 273
47 51 56 62 64 64 64 65 68 73 78 61 258 256 263 265 266 262 277 295 306 303 288 276 277 287 292 286 289 296 301 304 304 307 305 299 294 291 287 280 286 298 300 302 297 290 289 288 287 288 288 289 289 289 288 288 291 294 295 297 298 296 293 291 287 286 286 286 286 285 285 284 284 284 283 283 282 282 283 283 283 282 281 279 276
46 51 56 57 57 60 62 63 66 66 62 57 49 32 351 305 308 344 356 360 10 10 10 8 352 343 341 334 331 329 318 310 307 307 308 306 304 299 295 291 290 289 287 297 299 292 289 286 285 285 284 285 285 285 284 284 290 295 298 301 301 301 301 299 295 293 291 289 288 288 287 286 286 286 285 284 283 282 282 283 284 283 283 281 280
49 51 52 53 55 57 59 62 63 64 64 63 60 56 50 41 39 41 40 44 48 48 50 47 44 41 35 30 22 15 4 348 334 322 313 306 303 300 298 299 300 294 288 290 291 288 288 289 290 289 287 286 285 284 282 282 289 294 297 298 299 301 301 300 299 298 298 296 293 291 289 287 286 285 285 285 285 283 282 283 284 285 284 284 283
50 51 52 54 55 54 56 60 62 62 63 65 66 67 66 65 65 61 59 61 60 58 56 53 51 48 43 41 36 31 27 16 7 356 341 325 313 308 306 303 300 296 294 294 292 290 290 290 292 292 290 289 286 284 282 285 289 291 293 292 295 300 298 296 297 297 297 296 294 292 290 289 288 286 285 284 284 283 283 284 285 286 286 286 285
49 51 52 53 53 53 54 56 57 58 61 65 68 70 71 71 70 68 65 64 61 57 54 52 50 47 44 42 39 37 34 30 26 23 17 8 357 345 335 326 315 306 300 298 296 295 294 291 291 289 289 290 287 284 285 287 288 289 291 291 293 296 294 293 294 295 295 293 293 293 292 291 290 289 287 285 284 284 284 285 286 286 286 286 287
49 50 51 52 52 51 52 53 54 55 58 62 65 67 69 68 67 66 65 63 59 55 53 52 49 46 43 42 41 40 37 35 34 32 32 29 25 20 9 359 348 334 319 309 302 297 294 292 291 290 289 286 284 283 285 287 288 287 287 288 291 292 291 292 291 292 292 292 293 295 294 293 291 289 288 287 287 286 287 287 288 288 287 287 287
50 51 51 52 52 51 51 52 52 53 56 60 63 64 66 64 62 62 61 58 54 51 51 50 47 43 42 41 42 42 39 37 36 35 34 31 29 28 23 19 14 6 356 346 335 321 310 302 298 294 292 288 285 285 285 286 287 286 284 285 288 290 290 290 291 291 290 292 296 298 298 297 295 293 290 290 290 289 288 289 289 289 290 289 288
52 51 50 50 49 48 50 50 48 51 54 56 56 57 57 57 56 55 54 52 49 47 47 46 44 41 39 40 41 41 39 38 37 36 35 33 30 28 27 26 24 22 19 14 9 3 352 340 325 311 303 294 289 288 289 289 286 285 284 285 286 289 291 290 290 290 291 295 297 298 301 305 304 300 297 296 294 293 291 291 291 291 292 292 290
50 49 48 48 47 47 48 47 45 48 52 51 50 49 48 47 47 48 48 47 45 44 44 43 40 37 35 37 38 38 38 36 35 35 35 33 30 27 26 25 23 23 23 19 16 17 15 10 1 348 336 316 301 299 297 290 284 285 286 287 289 290 291 289 287 288 292 296 294 294 305 311 309 310 312 308 301 297 295 294 294 293 293 293 291
45 46 47 46 46 48 48 46 44 47 49 49 51 50 48 48 47 46 48 49 47 44 43 41 39 37 35 33 33 35 35 34 33 33 32 31 28 26 25 23 20 18 18 16 14 15 13 13 10 4 359 349 333 326 315 295 275 279 289 292 296 296 293 287 285 287 291 291 286 290 301 305 304 312 320 315 308 304 300 298 297 295 294 293 291
44 44 45 46 46 46 46 46 46 47 47 49 52 52 51 54 54 51 51 51 48 44 42 41 40 39 37 32 29 30 31 31 31 31 30 29 27 25 23 22 19 17 16 13 12 12 10 11 10 5 0 356 352 350 343 323 289 282 286 289 301 304 299 291 286 286 284 280 283 287 291 291 291 301 310 310 308 306 304 303 300 297 295 293 291
44 43 43 44 44 44 44 45 46 47 48 48 49 51 52 54 55 53 51 49 45 41 40 39 37 35 33 30 28 26 27 28 27 27 28 28 26 24 23 22 20 18 16 14 11 9 8 7 6 5 3 357 350 345 350 350 326 306 296 275 284 301 293 295 294 290 286 282 283 283 280 279 283 290 295 298 300 299 299 302 301 298 294 291 289
44 42 42 43 45 44 44 44 45 45 47 48 47 49 51 51 50 49 47 42 37 34 33 30 29 29 27 26 24 22 23 25 24 23 23 24 23 20 19 20 20 18 16 14 12 8 7 7 5 3 2 359 348 339 343 351 348 339 325 301 294 285 274 304 308 295 287 283 283 278 271 276 281 282 285 288 290 288 289 294 296 295 293 289 285
44 43 43 46 48 47 46 46 45 43 44 46 46 48 50 49 47 45 40 34 30 27 24 18 17 21 22 22 23 21 21 22 22 20 20 21 19 16 16 18 17 15 14 12 11 8 6 6 5 2 360 357 352 345 342 344 347 348 343 330 317 306 297 300 303 296 288 279 275 273 272 275 275 275 279 282 283 283 283 285 285 284 285 285 284
44 45 45 46 48 48 48 48 47 45 43 43 45 46 47 46 47 46 40 36 30 23 20 18 14 16 19 20 21 21 20 20 19 18 17 18 17 14 14 16 15 12 10 8 7 6 4 2 3 3 1 358 356 352 345 344 344 343 344 340 331 323 317 309 298 293 297 287 275 272 273 273 270 273 276 277 279 281 283 285 283 281 281 284 285
44 45 46 46 48 49 50 50 49 47 44 44 45 45 44 43 44 44 41 38 32 23 20 20 18 18 19 20 20 19 18 17 16 15 15 15 15 13 11 13 13 10 9 6 2 1 359 358 359 1 1 360 359 353 346 347 344 338 339 341 339 335 331 324 313 301 293 290 290 284 280 276 271 271 272 275 279 281 282 284 283 282 284 288 288
46 46 48 48 49 50 51 51 50 48 45 45 46 46 45 43 41 40 37 34 29 26 24 21 19 19 19 19 18 17 16 14 13 13 12 13 13 10 9 10 10 8 6 3 0 358 357 355 354 355 357 355 355 353 348 346 343 337 338 338 338 338 336 333 328 321 312 299 295 293 294 291 280 274 272 274 281 283 284 283 281 280 283 287 286
49 49 49 49 49 49 50 50 49 47 46 45 45 45 44 43 40 37 34 30 25 23 24 21 19 19 18 17 15 12 12 11 10 10 10 10 10 9 7 6 6 4 2 0 359 357 355 354 352 349 351 350 348 349 346 344 343 340 340 340 340 340 338 336 336 334 327 315 306 303 305 304 295 289 285 281 283 285 288 288 285 283 284 284 283
49 48 48 48 46 47 48 48 46 45 45 44 43 43 42 42 39 36 33 28 24 21 20 19 16 16 14 12 11 9 9 7 6 7 7 7 7 7 6 4 2 1 359 358 357 355 352 352 352 349 346 346 345 344 342 342 344 342 344 345 342 339 337 331 329 329 326 320 316 312 310 310 303 298 299 297 293 290 290 290 287 286 287 285 283